FW4226 Weather Reports


time (UTC)temp
F
wind
direction
speed
knots
gust
knots
rain 1hr
in
rain 24hr
in
rain mn
in
humidity
%
barometer
mb
20260510161500 54 38 2.6 7.8 0.00 0.00 0.00 64 1016.0
20260510161001 55 38 1.7 7.8 0.00 0.00 0.00 64 1016.0
20260510160500 54 302 1.7 8.7 0.00 0.00 0.00 64 1015.9
20260510155500 54 38 1.7 6.1 0.00 0.00 0.00 64 1016.1
20260510155000 55 355 1.7 6.1 0.00 0.00 0.00 64 1016.2
20260510154500 54 5 1.7 6.1 0.00 0.00 0.00 65 1016.2
20260510153500 54 109 2.6 8.7 0.00 0.00 0.00 66 1016.3
20260510153000 54 43 1.7 8.7 0.00 0.00 0.00 65 1016.3
20260510152000 54 334 1.7 7.0 0.00 0.00 0.00 67 1016.4
20260510151500 54 146 2.6 6.1 0.00 0.00 0.00 67 1016.4
20260510151001 54 103 2.6 7.0 0.00 0.00 0.00 67 1016.5
20260510150501 54 22 1.7 7.0 0.00 0.00 0.00 66 1016.6
20260510150005 54 300 1.7 5.2 0.00 0.00 0.00 67 1016.6
20260510145501 54 5 1.7 6.1 0.00 0.00 0.00 66 1016.6
20260510145002 54 22 1.7 6.1 0.00 0.00 0.00 68 1016.6
20260510144500 54 64 1.7 6.1 0.00 0.00 0.00 69 1016.6
20260510143500 53 355 1.7 5.2 0.00 0.00 0.00 70 1016.8
20260510143000 53 6 2.6 5.2 0.00 0.00 0.00 69 1016.8
20260510142500 53 237 2.6 7.0 0.00 0.00 0.00 70 1016.9
20260510142001 53 360 2.6 7.0 0.00 0.00 0.00 70 1017.0
20260510141500 53 7 2.6 7.8 0.00 0.00 0.00 70 1017.1
20260510141002 53 36 2.6 7.8 0.00 0.00 0.00 69 1017.0
20260510140500 53 22 2.6 7.8 0.00 0.00 0.00 69 1017.1
20260510140005 53 338 2.6 8.7 0.00 0.00 0.00 70 1017.0
20260510135501 53 86 2.6 7.0 0.00 0.00 0.00 72 1017.1
20260510135001 53 37 1.7 7.0 0.00 0.00 0.00 70 1016.9
20260510134500 53 14 1.7 5.2 0.00 0.00 0.00 71 1017.0
20260510134000 53 25 0.9 5.2 0.00 0.00 0.00 71 1017.1
20260510133500 53 19 1.7 6.1 0.00 0.00 0.00 72 1017.1
20260510132500 53 38 1.7 6.1 0.00 0.00 0.00 72 1017.2
20260510132001 53 294 2.6 7.8 0.00 0.00 0.00 72 1017.3
20260510131500 53 22 2.6 7.8 0.00 0.00 0.00 72 1017.2
20260510131000 53 5 2.6 7.8 0.00 0.00 0.00 72 1017.3
20260510130459 53 287 3.5 8.7 0.00 0.00 0.00 73 1017.3
20260510130005 53 51 3.5 8.7 0.00 0.00 0.00 72 1017.2
20260510125459 53 348 2.6 7.8 0.00 0.00 0.00 72 1017.4
20260510124459 53 300 3.5 9.6 0.00 0.00 0.00 72 1017.3
20260510124001 53 229 2.6 8.7 0.00 0.00 0.00 72 1017.5
20260510123501 53 25 2.6 10.4 0.00 0.00 0.00 72 1017.6
20260510123001 53 344 2.6 10.4 0.00 0.00 0.00 73 1017.5
20260510122459 53 339 2.6 7.8 0.00 0.00 0.00 73 1017.5
20260510122001 53 50 3.5 8.7 0.00 0.00 0.00 74 1017.5
20260510121501 53 266 2.6 8.7 0.00 0.00 0.00 73 1017.6
20260510121003 53 43 2.6 8.7 0.00 0.00 0.00 74 1017.7
20260510120502 53 157 2.6 8.7 0.00 0.00 0.00 74 1017.8
20260510120005 53 311 1.7 8.7 0.00 0.00 0.00 74 1017.7
20260510115459 53 351 2.6 6.1 0.00 0.00 0.00 74 1017.6
20260510115001 53 16 3.5 10.4 0.00 0.00 0.00 75 1017.9
20260510114459 53 41 3.5 10.4 0.00 0.00 0.00 74 1018.0
20260510114000 53 11 3.5 11.3 0.00 0.00 0.00 75 1018.1
20260510113500 53 19 3.5 11.3 0.00 0.00 0.00 75 1018.0
20260510113002 53 17 3.5 11.3 0.00 0.00 0.00 76 1018.0
20260510112500 53 82 3.5 11.3 0.00 0.00 0.00 77 1018.1
20260510112004 52 14 2.6 8.7 0.00 0.00 0.00 77 1018.4
20260510111500 52 17 2.6 7.8 0.00 0.00 0.00 77 1018.4
20260510111001 53 335 1.7 7.0 0.00 0.00 0.00 78 1018.3
20260510110500 53 358 1.7 5.2 0.00 0.00 0.00 78 1018.4
20260510105459 52 36 2.6 11.3 0.00 0.00 0.00 78 1018.4
20260510104959 52 342 2.6 13.0 0.00 0.00 0.00 78 1018.4
20260510104458 52 294 2.6 13.0 0.00 0.00 0.00 78 1018.4
20260510103959 52 278 1.7 7.0 0.00 0.00 0.00 78 1018.4
20260510103459 52 338 2.6 10.4 0.00 0.00 0.00 78 1018.5
20260510102459 52 327 2.6 7.8 0.00 0.00 0.00 78 1018.4
20260510101459 52 14 2.6 7.8 0.00 0.00 0.00 79 1018.4
20260510101001 52 47 2.6 7.0 0.00 0.00 0.00 79 1018.4
20260510100459 52 340 2.6 10.4 0.00 0.00 0.00 79 1018.4
20260510100004 52 24 2.6 6.1 0.00 0.00 0.00 80 1018.5
20260510095501 51 356 1.7 6.1 0.00 0.00 0.00 79 1018.6
20260510095002 51 318 1.7 6.1 0.00 0.00 0.00 80 1018.6
20260510094500 51 68 1.7 6.1 0.00 0.00 0.00 80 1018.7
20260510093959 51 320 2.6 10.4 0.00 0.00 0.00 81 1018.7
20260510093002 51 29 2.6 9.6 0.00 0.00 0.00 81 1018.6
20260510092500 51 360 2.6 9.6 0.00 0.00 0.00 81 1018.6
20260510092001 51 105 1.7 7.8 0.00 0.00 0.00 82 1018.6
20260510091459 51 16 2.6 7.8 0.00 0.00 0.00 81 1018.7
20260510090459 52 345 2.6 9.6 0.00 0.00 0.00 80 1018.7
20260510090004 52 268 2.6 7.0 0.00 0.00 0.00 81 1018.7
20260510085459 51 358 2.6 8.7 0.00 0.00 0.00 81 1018.9
20260510084958 51 31 2.6 8.7 0.00 0.00 0.00 81 1018.9
20260510084459 51 131 1.7 7.8 0.00 0.00 0.00 81 1019.0
20260510083458 52 346 1.7 5.2 0.00 0.00 0.00 81 1018.8
20260510082959 51 262 2.6 7.8 0.00 0.00 0.00 81 1018.8
20260510082459 51 325 2.6 7.8 0.00 0.00 0.00 81 1018.9
20260510081959 51 15 2.6 8.7 0.00 0.00 0.00 81 1018.8
20260510081459 51 322 2.6 8.7 0.00 0.00 0.00 81 1018.9
20260510080959 50 348 2.6 10.4 0.00 0.00 0.00 82 1018.8
20260510080005 50 308 3.5 7.0 0.00 0.00 0.00 82 1018.9
20260510075459 50 358 3.5 10.4 0.00 0.00 0.00 82 1018.8
20260510074959 49 19 3.5 7.8 0.00 0.00 0.00 82 1018.8
20260510074459 49 333 3.5 10.4 0.00 0.00 0.00 82 1018.9
20260510073959 49 10 2.6 10.4 0.00 0.00 0.00 82 1019.0
20260510073459 49 270 2.6 7.8 0.00 0.00 0.00 83 1018.9
20260510072959 49 17 2.6 7.8 0.00 0.00 0.00 83 1018.9
20260510072459 49 359 2.6 7.8 0.00 0.00 0.00 84 1018.9
20260510071459 49 31 3.5 13.0 0.00 0.00 0.00 83 1018.9
20260510070959 49 356 2.6 7.8 0.00 0.00 0.00 83 1018.9
20260510070459 49 228 2.6 7.8 0.00 0.00 0.00 84 1018.9
20260510070004 49 33 2.6 7.8 0.00 0.00 0.00 84 1018.9
20260510065459 49 60 2.6 9.6 0.00 0.00 0.00 84 1018.7
20260510064959 49 340 2.6 9.6 0.00 0.00 0.00 84 1018.7
20260510064459 49 320 3.5 9.6 0.00 0.00 0.00 84 1018.7
20260510063959 49 18 2.6 9.6 0.00 0.00 0.00 84 1018.7
20260510062458 49 216 3.5 11.3 0.00 0.00 0.00 85 1018.7
20260510061959 48 358 2.6 11.3 0.00 0.00 0.00 85 1018.5
20260510061000 48 149 3.5 10.4 0.00 0.00 0.00 85 1018.5
20260510060458 48 351 2.6 7.8 0.00 0.00 0.00 86 1018.6
20260510060006 48 86 2.6 10.4 0.00 0.00 0.00 86 1018.5
20260510055458 48 26 3.5 10.4 0.00 0.00 0.00 86 1018.6
20260510054959 48 360 2.6 8.7 0.00 0.00 0.00 86 1018.4
20260510054458 48 39 2.6 7.0 0.00 0.00 0.00 86 1018.4
20260510053958 48 341 2.6 7.0 0.00 0.00 0.00 86 1018.4
20260510053458 48 36 2.6 7.8 0.00 0.00 0.00 86 1018.4
20260510052959 48 97 0.9 7.8 0.00 0.00 0.00 86 1018.4
20260510052458 48 279 0.9 7.8 0.00 0.00 0.00 86 1018.5
20260510051457 48 334 1.7 5.2 0.00 0.00 0.00 86 1018.5
20260510050958 48 24 1.7 7.0 0.00 0.00 0.00 86 1018.5
20260510050458 48 293 2.6 7.0 0.00 0.00 0.00 86 1018.5
20260510050002 48 10 2.6 7.8 0.00 0.00 0.00 86 1018.5
20260510045457 48 355 1.7 6.1 0.00 0.00 0.00 86 1018.7
20260510044959 48 4 2.6 6.1 0.00 0.00 0.00 87 1018.8
20260510044458 48 269 2.6 8.7 0.00 0.00 0.00 87 1018.6
20260510043959 48 38 2.6 8.7 0.00 0.00 0.00 87 1018.4
20260510043458 48 38 1.7 6.1 0.00 0.00 0.00 87 1018.6
20260510043000 48 269 1.7 5.2 0.00 0.00 0.00 87 1018.5
20260510042458 47 37 1.7 5.2 0.00 0.00 0.00 87 1018.5
20260510041458 47 351 2.6 6.1 0.00 0.00 0.00 87 1018.4
20260510040959 48 358 2.6 7.0 0.00 0.00 0.00 86 1018.5
20260510040002 48 359 1.7 8.7 0.00 0.00 0.00 86 1018.6
20260510035458 48 43 1.7 8.7 0.00 0.00 0.00 86 1018.6
20260510034958 48 46 1.7 8.7 0.00 0.00 0.00 86 1018.6
20260510034458 48 7 1.7 8.7 0.00 0.00 0.00 86 1018.6
20260510033958 48 71 0.9 8.7 0.00 0.00 0.00 86 1018.6
20260510033458 48 26 0.9 8.7 0.00 0.00 0.00 86 1018.7
20260510032958 48 240 1.7 7.0 0.00 0.00 0.00 86 1018.6
20260510032459 48 12 1.7 7.0 0.00 0.00 0.00 86 1018.6
20260510031958 48 43 1.7 6.1 0.00 0.00 0.00 86 1018.7
20260510031458 48 33 0.9 6.1 0.00 0.00 0.00 86 1018.7
20260510030958 48 15 0.9 4.3 0.00 0.00 0.00 86 1018.7
20260510030458 48 11 0.9 7.8 0.00 0.00 0.00 86 1018.8
20260510030002 48 12 1.7 7.8 0.00 0.00 0.00 86 1018.7
20260510025501 48 293 1.7 7.0 0.00 0.00 0.00 86 1018.7
20260510024959 48 273 0.9 7.0 0.00 0.00 0.00 86 1018.8
20260510024458 48 313 1.7 7.0 0.00 0.00 0.00 86 1018.9
20260510024000 48 29 1.7 7.0 0.00 0.00 0.00 87 1019.1
20260510023458 48 14 1.7 7.8 0.00 0.00 0.00 86 1019.1
20260510022958 47 311 0.9 7.8 0.00 0.00 0.00 87 1019.0
20260510022458 47 6 0.0 3.5 0.00 0.00 0.00 87 1018.9
20260510021959 47 41 0.0 2.6 0.00 0.00 0.00 86 1019.0
20260510021457 47 11 0.0 2.6 0.00 0.00 0.00 86 1018.9
20260510020959 47 355 0.9 9.6 0.00 0.00 0.00 86 1018.9
20260510020457 47 352 0.9 7.0 0.00 0.00 0.00 86 1018.9
20260510020002 47 29 0.9 6.1 0.00 0.00 0.00 86 1019.0
20260510015458 47 341 0.9 6.1 0.00 0.00 0.00 86 1019.1
20260510014958 47 311 0.0 3.5 0.00 0.00 0.00 86 1019.0
20260510014458 47 108 0.0 3.5 0.00 0.00 0.00 86 1019.1
20260510013458 47 341 0.0 3.5 0.00 0.00 0.00 85 1019.0
20260510011957 48 41 0.9 5.2 0.00 0.00 0.00 85 1019.0
20260510011457 48 292 0.9 5.2 0.00 0.00 0.00 86 1018.9
20260510010958 48 316 0.0 5.2 0.00 0.00 0.00 86 1019.0
20260510010456 48 343 0.0 5.2 0.00 0.00 0.00 86 1018.9
20260510005000 48 354 0.0 0.9 0.00 0.00 0.00 86 1019.0
20260510004458 48 22 0.0 3.5 0.00 0.00 0.00 86 1019.0
20260510003957 48 351 0.0 2.6 0.00 0.00 0.00 86 1019.0
20260510003457 48 11 0.0 2.6 0.00 0.00 0.00 86 1019.0
20260510002957 48 289 0.0 1.7 0.00 0.00 0.00 86 1019.0
20260510000959 49 254 0.0 4.3 0.00 0.00 0.00 86 1019.1
20260510000459 49 339 0.9 4.3 0.00 0.00 0.00 85 1019.0
20260510000001 49 326 0.9 4.3 0.00 0.00 0.00 85 1019.0
20260509235457 49 335 0.9 4.3 0.00 0.00 0.00 84 1019.1
20260509234957 49 306 0.0 4.3 0.00 0.00 0.00 83 1019.1
20260509234456 49 310 0.0 2.6 0.00 0.00 0.00 82 1019.0
20260509233957 50 5 0.0 5.2 0.00 0.00 0.00 81 1018.9
20260509232958 50 315 0.0 1.7 0.00 0.00 0.00 78 1019.1
20260509232457 50 54 0.0 4.3 0.00 0.00 0.00 76 1019.0
20260509231502 51 306 0.0 1.7 0.00 0.00 0.00 72 1019.1
20260509230502 51 339 0.9 3.5 0.00 0.00 0.00 67 1019.0
20260509230006 51 360 0.0 2.6 0.00 0.00 0.00 66 1019.1
20260509225502 51 28 0.0 1.7 0.00 0.00 0.00 65 1019.1
20260509225003 52 74 0.9 5.2 0.00 0.00 0.00 65 1019.0
20260509224501 52 355 0.9 6.1 0.00 0.00 0.00 64 1018.9
20260509224003 52 47 0.9 5.2 0.00 0.00 0.00 65 1018.8
20260509223502 51 8 0.0 2.6 0.00 0.00 0.00 68 1019.1
20260509223003 51 30 0.0 2.6 0.00 0.00 0.00 69 1019.0
20260509222502 50 31 0.0 2.6 0.00 0.00 0.00 73 1019.1
20260509221504 50 5 0.0 0.0 0.00 0.00 0.00 76 1019.0
20260509221003 50 5 0.0 0.0 0.00 0.00 0.00 75 1019.0
20260509220502 50 5 0.0 0.0 0.00 0.00 0.00 74 1018.9
20260509220008 51 5 0.0 0.0 0.00 0.00 0.00 75 1019.0
20260509215502 51 5 0.0 0.0 0.00 0.00 0.00 75 1018.9
20260509214501 51 5 0.0 0.0 0.00 0.00 0.00 74 1018.7
20260509214002 51 5 0.0 0.0 0.00 0.00 0.00 74 1018.7
20260509213500 52 4 0.0 0.0 0.00 0.00 0.00 74 1018.6
20260509213001 52 4 0.0 0.0 0.00 0.00 0.00 74 1018.6
20260509212501 52 4 0.0 0.0 0.00 0.00 0.00 74 1018.5
20260509212001 52 4 0.0 0.0 0.00 0.00 0.00 74 1018.6
20260509211501 52 4 0.0 0.0 0.00 0.00 0.00 73 1018.6
20260509211002 53 4 0.0 0.0 0.00 0.00 0.00 73 1018.6
20260509210502 53 4 0.0 0.0 0.00 0.00 0.00 73 1018.6
20260509210004 53 4 0.0 0.0 0.00 0.00 0.00 70 1018.5
20260509205501 53 4 0.0 0.0 0.00 0.00 0.00 69 1018.6
20260509205001 53 4 0.0 0.0 0.00 0.00 0.00 69 1018.5
20260509204500 53 4 0.0 0.0 0.00 0.00 0.00 70 1018.5
20260509204002 53 4 0.0 0.0 0.00 0.00 0.00 71 1018.4
20260509203501 53 4 0.0 0.0 0.00 0.00 0.00 73 1018.3
20260509203001 54 4 0.0 0.0 0.00 0.00 0.00 73 1018.2
20260509202000 54 5 0.0 0.0 0.00 0.00 0.00 72 1018.2
20260509201500 55 5 0.0 0.0 0.00 0.00 0.00 70 1018.2
20260509201001 55 5 0.0 0.0 0.00 0.00 0.00 69 1018.1
20260509200501 56 4 0.0 0.0 0.00 0.00 0.00 68 1018.0
20260509200006 56 5 0.0 0.0 0.00 0.00 0.00 66 1017.9
20260509195003 58 5 0.0 0.0 0.00 0.00 0.00 63 1017.9
20260509194503 58 5 0.0 0.0 0.00 0.00 0.00 61 1017.8
20260509194003 59 4 0.0 0.0 0.00 0.00 0.00 60 1017.8
20260509193502 59 5 0.0 0.9 0.00 0.00 0.00 59 1017.9
20260509192502 60 337 0.0 1.7 0.00 0.00 0.00 58 1017.7
20260509192001 60 304 0.0 1.7 0.00 0.00 0.00 57 1017.5
20260509190006 62 93 0.0 1.7 0.00 0.00 0.00 56 1017.5
20260509185500 62 100 0.9 4.3 0.00 0.00 0.00 56 1017.4
20260509185001 63 7 0.0 4.3 0.00 0.00 0.00 55 1017.4
20260509184501 63 121 0.0 1.7 0.00 0.00 0.00 55 1017.3
20260509184000 63 180 0.9 1.7 0.00 0.00 0.00 54 1017.1
20260509183501 64 27 0.9 3.5 0.00 0.00 0.00 53 1017.2
20260509183001 64 71 0.9 4.3 0.00 0.00 0.00 52 1017.2
20260509182500 64 307 0.9 4.3 0.00 0.00 0.00 51 1017.2
20260509181501 65 248 1.7 5.2 0.00 0.00 0.00 50 1017.0
20260509180500 66 117 0.9 3.5 0.00 0.00 0.00 48 1017.0
20260509175502 66 13 0.9 3.5 0.00 0.00 0.00 48 1017.0
20260509175000 66 306 0.9 6.1 0.00 0.00 0.00 49 1017.0
20260509174501 66 216 1.7 6.1 0.00 0.00 0.00 48 1016.9
20260509174001 66 92 0.9 4.3 0.00 0.00 0.00 49 1016.9
20260509173002 66 247 0.0 2.6 0.00 0.00 0.00 48 1016.8
20260509172003 65 315 0.9 3.5 0.00 0.00 0.00 49 1016.9
20260509171501 66 66 0.9 3.5 0.00 0.00 0.00 49 1016.9
20260509171001 66 303 0.9 3.5 0.00 0.00 0.00 49 1016.9
20260509170500 66 331 0.0 1.7 0.00 0.00 0.00 49 1017.0
20260509170006 66 342 0.0 1.7 0.00 0.00 0.00 49 1016.9
20260509165501 66 62 0.9 4.3 0.00 0.00 0.00 50 1017.1
20260509165001 66 1 0.9 5.2 0.00 0.00 0.00 48 1017.1
20260509164500 66 306 1.7 5.2 0.00 0.00 0.00 48 1017.1
20260509163459 67 330 1.7 7.0 0.00 0.00 0.00 46 1017.0
20260509163001 68 218 1.7 5.2 0.00 0.00 0.00 45 1017.0